Weather History for Afton Municipal Airport, WY

Change the Weather History Date:

Monday, January 13, 2014

  Actual Average Record
Temperature  
Mean Temperature 30 °F -  
Max Temperature 33 °F 28 °F 33 °F (2014)
Min Temperature 26 °F 5 °F 26 °F (2014)
Degree Days  
Heating Degree Days 36    
Moisture  
Dew Point 25 °F    
Average Humidity 79    
Maximum Humidity 93    
Minimum Humidity 69    
Precipitation  
Precipitation 0.00 in - - ()
Sea Level Pressure  
Sea Level Pressure 30.25 in    
Wind  
Wind Speed 5 mph (SSE)    
Max Wind Speed 10 mph    
Max Gust Speed -    
Visibility 8 miles    
Events Snow    
Averages and records for this station are not official NWS values.
T = Trace of Precipitation, MM = Missing Value Source: NWS Daily Summary

Daily Weather History Graph

Daily Weather History Graph

Search for Another Location

Airport:

Trip Planner

Search our weather history database for the weather conditions in past years. The results will help you decide how hot, cold, wet, or windy it might be!

Date:

Astronomy

Jan. 13, 2014 Rise Set
Actual Time 7:52 AM MST 5:13 PM MST
Civil Twilight 7:20 AM MST 5:44 PM MST
Nautical Twilight 6:45 AM MST 6:19 PM MST
Astronomical Twilight 6:11 AM MST 6:53 PM MST
Moon 3:31 PM MST (1/13) 5:43 AM MST (1/13)
Length of Visible Light 10h 23m
Length of Day
9h 21m
Waxing Gibbous, 95% of the Moon is Illuminated
Jan 13
Waxing Gibbous
Jan 15
Full
Jan 23
Last Quarter
Jan 30
New
Feb 6
First Quarter

Hourly Weather History & Observations

Time (MST) Temp. Windchill Dew Point Humidity Pressure Visibility Wind Dir Wind Speed Gust Speed Precip Events Conditions
12:15 AM 26.6 °F 20.0 °F 21.2 °F 80% 30.16 in 4.0 mi SE 5.8 mph - N/A Snow Light Snow
12:35 AM 26.6 °F 20.0 °F 23.0 °F 86% 30.16 in 1.8 mi SE 5.8 mph - N/A Snow Light Snow
12:55 AM 26.6 °F 20.0 °F 23.0 °F 86% 30.15 in 1.5 mi SE 5.8 mph - N/A Snow Light Snow
1:15 AM 26.6 °F 20.0 °F 23.0 °F 86% 30.15 in 2.5 mi SSE 5.8 mph - N/A Snow Light Snow
1:35 AM 26.6 °F 22.6 °F 23.0 °F 86% 30.16 in 2.0 mi SSE 3.5 mph - N/A Snow Light Snow
1:55 AM 26.6 °F 18.2 °F 23.0 °F 86% 30.16 in 2.0 mi SE 8.1 mph - N/A Snow Light Snow
2:15 AM 26.6 °F 17.5 °F 23.0 °F 86% 30.16 in 4.0 mi SE 9.2 mph - N/A Snow Light Snow
2:35 AM 28.4 °F 21.2 °F 23.0 °F 80% 30.16 in 5.0 mi South 6.9 mph - N/A Snow Light Snow
2:55 AM 28.4 °F 22.2 °F 23.0 °F 80% 30.18 in 4.0 mi SSE 5.8 mph - N/A Snow Light Snow
3:15 AM 28.4 °F 22.2 °F 23.0 °F 80% 30.18 in 7.0 mi SSE 5.8 mph - N/A Snow Light Snow
3:35 AM 28.4 °F 23.3 °F 23.0 °F 80% 30.18 in 5.0 mi SE 4.6 mph - N/A Snow Light Snow
3:55 AM 28.4 °F 20.4 °F 23.0 °F 80% 30.18 in 4.0 mi SE 8.1 mph - N/A Snow Light Snow
4:15 AM 28.4 °F 23.3 °F 23.0 °F 80% 30.19 in 5.0 mi ESE 4.6 mph - N/A Snow Light Snow
4:35 AM 28.4 °F 23.3 °F 24.8 °F 86% 30.20 in 1.2 mi SSE 4.6 mph - N/A Snow Snow
4:55 AM 28.4 °F 22.2 °F 26.6 °F 93% 30.20 in 2.0 mi SSE 5.8 mph - N/A Snow Light Snow
5:15 AM 28.4 °F 19.7 °F 24.8 °F 86% 30.19 in 5.0 mi SSE 9.2 mph - N/A Snow Light Snow
5:35 AM 28.4 °F 22.2 °F 24.8 °F 86% 30.20 in 7.0 mi SSE 5.8 mph - N/A Snow Light Snow
5:55 AM 30.2 °F 25.4 °F 24.8 °F 80% 30.21 in 7.0 mi SSE 4.6 mph - N/A Snow Light Snow
6:15 AM 30.2 °F - 24.8 °F 80% 30.21 in 10.0 mi Calm Calm - N/A Snow Light Snow
6:35 AM 30.2 °F 26.7 °F 24.8 °F 80% 30.21 in 10.0 mi West 3.5 mph - N/A   Scattered Clouds
6:55 AM 30.2 °F - 24.8 °F 80% 30.22 in 10.0 mi Calm Calm - N/A   Scattered Clouds
7:15 AM 30.2 °F - 24.8 °F 80% 30.23 in 10.0 mi Calm Calm - N/A   Scattered Clouds
7:35 AM 30.2 °F 23.4 °F 24.8 °F 80% 30.23 in 10.0 mi NW 6.9 mph - N/A   Scattered Clouds
7:55 AM 30.2 °F 23.4 °F 24.8 °F 80% 30.24 in 10.0 mi SSE 6.9 mph - N/A   Scattered Clouds
8:15 AM 30.2 °F 24.3 °F 26.6 °F 86% 30.24 in 3.0 mi SSE 5.8 mph - N/A Snow Light Snow
8:35 AM 30.2 °F 25.4 °F 26.6 °F 86% 30.26 in 3.0 mi SSE 4.6 mph - N/A Snow Light Snow
8:55 AM 30.2 °F 25.4 °F 26.6 °F 86% 30.27 in 7.0 mi SE 4.6 mph - N/A   Overcast
9:15 AM 32.0 °F - 26.6 °F 80% 30.27 in 10.0 mi Calm Calm - N/A   Mostly Cloudy
9:35 AM 32.0 °F 27.5 °F 26.6 °F 80% 30.27 in 10.0 mi SSE 4.6 mph - N/A   Mostly Cloudy
9:55 AM 32.0 °F 28.7 °F 26.6 °F 80% 30.27 in 10.0 mi South 3.5 mph - N/A   Mostly Cloudy
10:15 AM 32.0 °F 27.5 °F 26.6 °F 80% 30.27 in 10.0 mi South 4.6 mph - N/A   Scattered Clouds
10:35 AM 32.0 °F 28.7 °F 26.6 °F 80% 30.27 in 10.0 mi ESE 3.5 mph - N/A   Scattered Clouds
10:55 AM 32.0 °F 26.4 °F 26.6 °F 80% 30.26 in 10.0 mi SE 5.8 mph - N/A   Mostly Cloudy
11:15 AM 32.0 °F - 26.6 °F 80% 30.26 in 10.0 mi Calm Calm - N/A   Mostly Cloudy
11:35 AM 32.0 °F 24.8 °F 26.6 °F 80% 30.26 in 10.0 mi West 8.1 mph - N/A   Mostly Cloudy
11:55 AM 32.0 °F 25.6 °F 26.6 °F 80% 30.25 in 10.0 mi WSW 6.9 mph - N/A   Mostly Cloudy
12:15 PM 32.0 °F 28.7 °F 26.6 °F 80% 30.24 in 10.0 mi West 3.5 mph - N/A   Mostly Cloudy
12:35 PM 33.8 °F - 26.6 °F 75% 30.24 in 10.0 mi Calm Calm - N/A   Mostly Cloudy
12:55 PM 32.0 °F 25.6 °F 26.6 °F 80% 30.24 in 10.0 mi West 6.9 mph - N/A   Mostly Cloudy
1:15 PM 32.0 °F 25.6 °F 26.6 °F 80% 30.23 in 10.0 mi WNW 6.9 mph - N/A   Mostly Cloudy
1:35 PM 32.0 °F - 26.6 °F 80% 30.22 in 10.0 mi Calm Calm - N/A   Mostly Cloudy
1:55 PM 33.8 °F 29.6 °F 26.6 °F 75% 30.22 in 10.0 mi North 4.6 mph - N/A   Mostly Cloudy
2:15 PM 33.8 °F 29.6 °F 26.6 °F 75% 30.24 in 10.0 mi NW 4.6 mph - N/A   Overcast
2:35 PM 33.8 °F 27.0 °F 26.6 °F 75% 30.24 in 10.0 mi West 8.1 mph - N/A   Overcast
2:55 PM 32.0 °F - 26.6 °F 80% 30.25 in 10.0 mi Calm Calm - N/A   Mostly Cloudy
3:15 PM 32.0 °F 28.7 °F 26.6 °F 80% 30.25 in 10.0 mi NW 3.5 mph - N/A   Mostly Cloudy
3:35 PM 32.0 °F 27.5 °F 26.6 °F 80% 30.26 in 10.0 mi North 4.6 mph - N/A   Mostly Cloudy
3:55 PM 32.0 °F 27.5 °F 26.6 °F 80% 30.26 in 10.0 mi North 4.6 mph - N/A   Mostly Cloudy
4:15 PM 32.0 °F 28.7 °F 26.6 °F 80% 30.27 in 10.0 mi NNW 3.5 mph - N/A   Mostly Cloudy
4:35 PM 32.0 °F 28.7 °F 26.6 °F 80% 30.28 in 10.0 mi NW 3.5 mph - N/A   Overcast
4:55 PM 32.0 °F 28.7 °F 26.6 °F 80% 30.26 in 10.0 mi NNW 3.5 mph - N/A   Overcast
5:15 PM 32.0 °F 26.4 °F 26.6 °F 80% 30.26 in 10.0 mi North 5.8 mph - N/A   Overcast
5:35 PM 32.0 °F 27.5 °F 26.6 °F 80% 30.27 in 10.0 mi North 4.6 mph - N/A   Overcast
5:55 PM 32.0 °F 23.6 °F 24.8 °F 75% 30.27 in 10.0 mi WNW 10.4 mph - N/A   Overcast
6:15 PM 32.0 °F 25.6 °F 24.8 °F 75% 30.28 in 10.0 mi NNE 6.9 mph - N/A   Overcast
6:35 PM 32.0 °F 27.5 °F 24.8 °F 75% 30.29 in 10.0 mi NE 4.6 mph - N/A   Overcast
6:55 PM 32.0 °F - 24.8 °F 75% 30.28 in 10.0 mi Calm Calm - N/A   Overcast
7:15 PM 32.0 °F - 24.8 °F 75% 30.29 in 10.0 mi Calm Calm - N/A   Overcast
7:35 PM 32.0 °F 27.5 °F 23.0 °F 69% 30.29 in 10.0 mi North 4.6 mph - N/A   Overcast
7:55 PM 32.0 °F 28.7 °F 23.0 °F 69% 30.29 in 10.0 mi ENE 3.5 mph - N/A   Overcast
8:15 PM 32.0 °F 26.4 °F 23.0 °F 69% 30.29 in 10.0 mi South 5.8 mph - N/A   Overcast
8:35 PM 32.0 °F - 24.8 °F 75% 30.30 in 10.0 mi Calm Calm - N/A   Overcast
8:55 PM 32.0 °F 28.7 °F 23.0 °F 69% 30.30 in 10.0 mi SSW 3.5 mph - N/A   Overcast
9:15 PM 32.0 °F - 23.0 °F 69% 30.30 in 10.0 mi North - - N/A   Overcast
9:35 PM 32.0 °F - 23.0 °F 69% 30.32 in 10.0 mi North - - N/A   Overcast
9:55 PM 32.0 °F 25.6 °F 23.0 °F 69% 30.33 in 10.0 mi NW 6.9 mph - N/A   Overcast
10:15 PM 32.0 °F 28.7 °F 23.0 °F 69% 30.33 in 10.0 mi West 3.5 mph - N/A   Overcast
10:35 PM 32.0 °F 25.6 °F 23.0 °F 69% 30.34 in 10.0 mi North 6.9 mph - N/A   Overcast
10:55 PM 32.0 °F 25.6 °F 23.0 °F 69% 30.33 in 10.0 mi NNE 6.9 mph - N/A   Overcast
11:15 PM 32.0 °F 24.8 °F 23.0 °F 69% 30.35 in 10.0 mi NNE 8.1 mph - N/A   Overcast
11:35 PM 30.2 °F 22.6 °F 23.0 °F 75% 30.36 in 10.0 mi NE 8.1 mph - N/A   Overcast
11:55 PM 32.0 °F 27.5 °F 23.0 °F 69% 30.36 in 10.0 mi NNE 4.6 mph - N/A   Overcast